DateTimeUTC,F1_A11,F1_S11,BsB_S11,BsG_S11,BsR_S11,BbsB_S11,BbsG_S11,BbsR_S11,BaB_A11,BaG_A11,BaR_A11,Tu_S11,T_S11,Uu_S11,U_S11,P_S11,T1_A11
2021-02-04T06:00:00Z,00000200,21000000,,,,,,,-000.18,-000.40,-000.08,16.6,23.6,,00.0,0617.0,30.9
2021-02-04T06:01:00Z,00000200,21000000,,,,,,,-000.01,-000.05,0000.16,16.6,23.6,,00.0,0617.0,30.9
2021-02-04T06:02:00Z,00000200,21000000,,,,,,,0000.26,0000.06,0000.17,16.6,23.6,,00.0,0617.0,30.9
2021-02-04T06:03:00Z,00000200,61000000,,,,,,,0000.24,0000.59,0000.12,16.6,23.6,,00.0,0617.0,31.0
2021-02-04T06:04:00Z,00000200,41000000,-000.00,-000.10,0000.20,-000.17,0000.12,0000.12,0000.19,0000.20,0000.10,17.0,23.5,00.2,00.1,0617.8,31.0
2021-02-04T06:05:00Z,00000200,01000000,0000.11,-000.19,0000.01,-000.18,-000.04,-000.08,-000.28,-000.24,0000.31,17.1,23.5,00.2,00.2,0618.0,31.0
2021-02-04T06:06:00Z,00000200,01000000,0000.70,0000.01,-000.23,-000.22,-000.01,0000.24,-000.04,-000.06,-000.38,17.1,23.5,00.2,00.1,0618.0,31.0
2021-02-04T06:07:00Z,00000200,01000000,0000.09,0000.04,0000.28,-000.00,0000.16,0000.01,0000.04,0000.21,0000.03,17.1,23.5,00.2,00.1,0617.9,31.0
2021-02-04T06:08:00Z,00000200,01000000,0000.97,0000.21,0000.48,-000.05,-000.12,0000.09,0000.21,0000.22,0000.16,17.1,23.5,00.2,00.2,0617.9,31.0
2021-02-04T06:09:00Z,00000200,01000000,-000.20,0000.21,0000.12,0000.12,0000.22,0000.06,0000.03,-000.09,-000.11,17.1,23.5,00.3,00.2,0617.9,31.0
2021-02-04T06:10:00Z,00000200,01000000,0000.28,-000.17,0000.23,0000.21,0000.06,0000.20,0000.16,-000.07,-000.11,17.1,23.5,00.2,00.2,0618.1,31.0
2021-02-04T06:11:00Z,00000200,01000000,0000.19,0000.22,0000.12,0000.55,0000.06,0000.01,-000.16,-000.00,-000.06,17.1,23.5,00.3,00.2,0618.1,31.0
2021-02-04T06:12:00Z,00000200,01000000,0000.43,-000.25,0000.10,-000.50,-000.03,0000.18,0000.37,0000.01,0000.32,17.1,23.5,00.2,00.1,0618.1,31.0
2021-02-04T06:13:00Z,00000200,01000000,0000.54,-000.32,0000.04,0000.17,-000.11,0000.29,0000.03,-000.04,0000.20,17.1,23.5,00.3,00.2,0618.2,31.0
2021-02-04T06:14:00Z,00000200,01000000,0000.09,0000.01,0000.30,-000.01,0000.08,0000.02,-000.25,0000.21,-000.27,17.1,23.5,00.2,00.1,0618.2,31.0
2021-02-04T06:15:00Z,00000200,01000000,0000.20,-000.06,-000.03,-000.02,0000.05,-000.00,0000.15,-000.25,0000.16,17.1,23.5,00.2,00.2,0618.2,31.0
2021-02-04T06:16:00Z,00000200,01000000,0000.06,-000.13,0000.05,-000.26,-000.23,-000.21,-000.26,0000.13,-000.27,17.1,23.5,00.2,00.2,0618.1,31.0
2021-02-04T06:17:00Z,00000200,01000000,0000.44,-000.36,0000.09,0000.33,0000.28,-000.30,0000.29,0000.16,-000.09,17.0,23.5,00.3,00.2,0618.2,31.0
2021-02-04T06:18:00Z,00000200,01000000,0000.02,0000.37,0000.23,0000.47,-000.31,0000.15,-000.09,-000.06,0000.72,17.0,23.4,00.3,00.2,0618.2,31.0
2021-02-04T06:19:00Z,00000200,01000000,0000.33,-000.11,0000.20,-000.29,0000.02,0000.32,0000.31,0000.19,-000.18,17.0,23.4,00.3,00.2,0618.3,31.0
2021-02-04T06:20:00Z,00000200,01000000,0000.78,0000.04,0000.16,-000.25,0000.16,0000.12,-000.34,0000.06,-000.23,17.0,23.4,00.3,00.2,0618.3,31.0
2021-02-04T06:21:00Z,00000200,01000000,-000.49,-000.28,-000.01,-000.02,0000.28,0000.09,0000.05,-000.19,0000.44,17.0,23.4,00.3,00.2,0618.3,30.9
2021-02-04T06:22:00Z,00000200,01000000,0000.49,-000.06,0000.08,-000.37,0000.08,0000.28,-000.02,-000.09,-000.40,17.0,23.4,00.3,00.2,0618.3,30.9
2021-02-04T06:23:00Z,00000200,01000000,-000.05,-000.06,0000.02,-000.16,0000.08,-000.11,0000.01,0000.09,0000.24,17.0,23.4,00.3,00.2,0618.2,31.0
2021-02-04T06:24:00Z,00000200,01000000,-000.46,-000.02,0000.06,-000.06,0000.14,0000.11,0000.27,0000.14,-000.15,17.0,23.4,00.3,00.2,0618.3,31.0
2021-02-04T06:25:00Z,00000200,01000000,-000.55,0000.04,0000.12,-000.21,0000.22,0000.16,0000.06,0000.38,-000.05,17.0,23.4,00.2,00.1,0618.3,31.0
2021-02-04T06:26:00Z,00000200,01000000,-000.01,-000.13,-000.08,-000.18,-000.04,0000.03,-000.51,-000.34,-000.07,16.9,23.4,00.3,00.2,0618.4,31.0
2021-02-04T06:27:00Z,00000200,01000000,0000.53,-000.12,0000.24,-000.07,-000.04,0000.03,0000.49,-000.27,-000.18,16.9,23.4,00.3,00.2,0618.3,31.0
2021-02-04T06:28:00Z,00000200,01000000,0000.48,-000.15,0000.24,-000.19,-000.03,0000.34,-000.19,0000.02,0000.47,16.9,23.4,00.2,00.2,0618.4,31.0
2021-02-04T06:29:00Z,00000200,01000000,0000.49,0000.11,0000.14,-000.44,-000.06,0000.15,0000.37,0000.33,0000.02,16.9,23.4,00.3,00.2,0618.5,31.0
2021-02-04T06:30:00Z,00000200,01000000,0000.42,0000.09,0000.10,0000.19,0000.02,-000.07,-000.16,-000.76,-000.17,16.9,23.4,00.3,00.2,0618.4,31.0
2021-02-04T06:31:00Z,00000200,01000000,-000.30,0000.03,0000.20,0000.15,0000.20,0000.13,-000.04,0000.63,0000.25,16.9,23.4,00.3,00.2,0618.5,31.0
2021-02-04T06:32:00Z,00000200,01000000,-000.23,0000.00,0000.04,0000.12,0000.01,0000.08,0000.11,0000.06,-000.02,17.0,23.4,00.4,00.2,0618.5,31.0
2021-02-04T06:33:00Z,00000200,01000000,-000.32,-000.10,0000.21,-000.28,-000.09,0000.35,0000.00,0000.25,0000.26,17.1,23.4,00.3,00.2,0618.4,31.0
2021-02-04T06:34:00Z,00000200,01000000,0000.34,-000.05,0000.07,0000.13,0000.17,0000.17,-000.06,-000.29,-000.50,17.2,23.5,00.3,00.2,0618.4,31.0
2021-02-04T06:35:00Z,00000200,01000000,0000.08,-000.09,-000.01,0000.31,0000.09,0000.28,0000.32,0000.49,0000.31,17.2,23.5,00.3,00.2,0618.5,31.0
2021-02-04T06:36:00Z,00000200,01000000,0000.02,0000.25,0000.06,-000.18,0000.07,0000.38,-000.36,-000.02,-000.05,17.2,23.5,00.3,00.2,0618.5,31.0
2021-02-04T06:37:00Z,00000200,01000000,0000.01,-000.02,-000.01,0000.23,0000.13,0000.07,-000.31,-000.26,-000.31,17.2,23.5,00.3,00.2,0618.6,31.0
2021-02-04T06:38:00Z,00000200,01000000,0000.29,-000.12,0000.24,0000.12,0000.26,0000.21,0000.10,-000.48,0000.16,17.2,23.5,00.3,00.2,0618.6,31.0
2021-02-04T06:39:00Z,00000200,01000000,0000.80,-000.06,-000.09,-000.05,0000.02,0000.22,0000.36,0000.58,0000.13,17.2,23.5,00.2,00.2,0618.6,31.0
2021-02-04T06:40:00Z,00000200,01000000,0000.30,-000.20,-000.04,-000.36,0000.04,0000.13,-000.39,-000.59,-000.01,17.2,23.5,00.3,00.2,0618.5,31.0
2021-02-04T06:41:00Z,00000200,01000000,0000.39,0000.20,0000.22,-000.16,0000.23,0000.00,0000.34,0000.79,-000.19,17.2,23.5,00.3,00.2,0618.6,31.0
2021-02-04T06:42:00Z,00000200,01000000,-000.07,0000.07,0000.23,-000.32,-000.21,0000.17,0000.10,-000.10,-000.04,17.1,23.5,00.3,00.2,0618.7,31.0
2021-02-04T06:43:00Z,00000200,01000000,0000.37,0000.21,0000.04,-000.07,0000.22,0000.12,0000.00,-000.35,0000.21,17.1,23.5,00.3,00.2,0618.7,31.0
2021-02-04T06:44:00Z,00000200,01000000,0000.10,-000.03,0000.00,-000.01,-000.12,0000.06,0000.02,0000.22,0000.29,17.1,23.5,00.2,00.2,0618.7,31.0
2021-02-04T06:45:00Z,00000200,01000000,0000.41,-000.01,-000.03,-000.03,-000.02,0000.06,-000.03,0000.01,-000.15,17.1,23.5,00.2,00.2,0618.7,31.0
2021-02-04T06:46:00Z,00000200,01000000,-000.23,-000.08,-000.25,0000.64,-000.07,-000.01,-000.35,-000.51,0000.07,17.1,23.5,00.2,00.2,0618.8,31.0
2021-02-04T06:47:00Z,00000200,01000000,0000.30,-000.20,0000.26,0000.01,0000.05,0000.15,0000.00,0000.10,-000.40,17.1,23.5,00.2,00.1,0618.7,31.0
2021-02-04T06:48:00Z,00000200,01000000,0000.07,0000.07,-000.11,0000.28,0000.02,0000.11,0000.04,0000.48,0000.07,17.1,23.5,00.2,00.1,0618.7,31.0
2021-02-04T06:49:00Z,00000200,01000000,0000.34,-000.03,0000.06,-000.25,0000.02,-000.05,0000.36,0000.05,0000.09,17.1,23.5,00.2,00.1,0618.7,31.0
2021-02-04T06:50:00Z,00000200,01000000,0000.36,0000.20,0000.21,-000.12,-000.19,0000.00,-000.44,-000.35,0000.15,17.1,23.4,00.3,00.2,0618.7,31.0
2021-02-04T06:51:00Z,00000200,01000000,0000.04,-000.08,-000.15,-000.61,0000.10,0000.16,-000.19,0000.15,-000.26,17.1,23.5,00.2,00.1,0618.8,31.0
2021-02-04T06:52:00Z,00000200,01000000,0000.61,0000.34,0000.18,-000.42,-000.28,0000.28,0000.46,-000.04,0000.25,17.1,23.4,00.2,00.1,0618.7,31.0
2021-02-04T06:53:00Z,00000200,01000000,0000.29,0000.08,0000.06,0000.03,-000.02,-000.10,0000.28,0000.17,-000.08,17.0,23.4,00.3,00.2,0618.8,31.0
2021-02-04T06:54:00Z,00000200,01000000,-000.10,0000.15,-000.27,0000.42,-000.02,0000.16,-000.02,0000.20,0000.64,17.0,23.4,00.3,00.2,0618.8,31.0
2021-02-04T06:55:00Z,00000200,01000000,0000.29,0000.03,0000.24,0000.16,0000.18,0000.19,0000.06,0000.17,-000.17,17.0,23.4,00.3,00.2,0618.8,31.0
2021-02-04T06:56:00Z,00000200,01000000,-000.06,-000.13,0000.30,0000.11,-000.09,0000.02,0000.00,0000.01,-000.06,17.0,23.4,00.2,00.2,0618.8,31.0
2021-02-04T06:57:00Z,00000200,41000000,,,,,,,-000.24,-000.16,-000.21,17.1,23.5,,00.0,0618.6,30.9
2021-02-04T06:58:00Z,00000200,61000000,,,,,,,-000.18,-000.51,-000.26,16.7,23.5,00.0,00.0,0617.9,31.0
2021-02-04T06:59:00Z,00000200,21010000,,,,,,,-000.18,0000.39,-000.23,16.7,23.6,,00.0,0617.9,31.0
